DateTimeUTC,F1_A11,F1_S11,BsB_S11,BsG_S11,BsR_S11,BbsB_S11,BbsG_S11,BbsR_S11,BaB_A11,BaG_A11,BaR_A11,Tu_S11,T_S11,Uu_S11,U_S11,P_S11,T1_A11
2021-10-09T10:00:00Z,00000200,21000000,,,,,,,0000.16,0000.17,0000.49,16.9,24.1,,00.0,0669.7,30.9
2021-10-09T10:01:00Z,00000200,21000000,,,,,,,-000.19,0000.10,-000.21,16.9,24.1,,00.0,0669.7,30.9
2021-10-09T10:02:00Z,00000200,21000000,,,,,,,0000.28,0000.08,-000.04,17.0,24.1,,00.0,0669.7,31.0
2021-10-09T10:03:00Z,00000200,61000000,,,,,,,0000.36,0000.20,0000.52,17.0,24.1,,00.0,0669.7,30.9
2021-10-09T10:04:00Z,00000200,41000000,0000.69,0000.55,0000.58,-000.30,0000.22,-000.03,0000.20,0000.54,-000.02,17.4,24.0,,00.0,0670.6,30.9
2021-10-09T10:05:00Z,00000200,01000000,0001.58,0000.52,0000.56,0000.17,0000.30,-000.13,-000.02,-000.08,0000.03,17.5,24.0,,00.0,0670.7,30.9
2021-10-09T10:06:00Z,00000200,01000000,0001.35,0000.63,0000.43,0000.51,0000.24,0000.07,0000.43,0000.20,0000.22,17.5,24.1,,00.0,0670.7,31.0
2021-10-09T10:07:00Z,00000200,01000000,0000.72,0000.58,0000.24,0000.26,0000.12,-000.01,-000.25,-000.29,-000.00,17.6,24.1,,00.0,0670.7,31.0
2021-10-09T10:08:00Z,00000200,01000000,0000.64,0000.74,0000.33,0000.07,0000.03,0000.16,0000.19,0000.39,0000.09,17.5,24.0,,00.0,0670.7,30.9
2021-10-09T10:09:00Z,00000200,01000000,0000.81,0000.70,0000.24,0000.03,0000.03,0000.24,0000.30,-000.16,-000.21,17.4,24.0,,00.0,0670.7,30.9
2021-10-09T10:10:00Z,00000200,01000000,0000.72,0000.79,0000.04,0000.22,0000.34,-000.01,0000.01,0000.13,0000.21,17.4,23.9,,00.0,0670.7,30.9
2021-10-09T10:11:00Z,00000200,01000000,0001.20,0000.65,0000.17,-000.23,-000.05,-000.01,0000.28,-000.58,0000.15,17.3,23.9,,00.0,0670.7,30.9
2021-10-09T10:12:00Z,00000200,01000000,0001.08,0000.74,0000.08,-000.06,0000.02,0000.15,-000.19,0000.70,-000.18,17.2,23.8,,00.0,0670.6,30.9
2021-10-09T10:13:00Z,00000200,01000000,0000.89,0000.40,0000.37,-000.01,0000.21,0000.48,0000.71,0000.48,0000.49,17.1,23.8,,00.0,0670.6,30.9
2021-10-09T10:14:00Z,00000200,01000000,0000.23,0000.56,0000.59,0000.36,-000.06,0000.35,0000.41,0000.34,0000.21,17.1,23.7,,00.0,0670.6,30.9
2021-10-09T10:15:00Z,00000200,01000000,0001.06,0000.54,0000.44,-000.49,0000.05,-000.16,0000.10,0000.32,0000.49,17.1,23.8,,00.0,0670.6,30.9
2021-10-09T10:16:00Z,00000200,01000000,0000.91,0000.80,0000.40,0000.05,0000.33,0000.07,0000.31,0000.70,0000.29,17.2,23.8,,00.0,0670.6,30.9
2021-10-09T10:17:00Z,00000200,01000000,0000.46,0000.55,0000.70,0000.03,0000.05,0000.11,0000.06,-000.30,0000.01,17.2,23.8,,00.0,0670.6,30.9
2021-10-09T10:18:00Z,00000200,01000000,0000.71,0000.50,0000.14,-000.40,0000.32,-000.07,0000.19,0000.31,0000.42,17.3,23.8,,00.0,0670.6,30.9
2021-10-09T10:19:00Z,00000200,01000000,0001.35,0000.56,0000.41,-000.08,0000.14,-000.02,0000.90,0000.28,-000.27,17.4,23.8,,00.0,0670.6,30.9
2021-10-09T10:20:00Z,00000200,01000000,0000.96,0000.54,0000.35,0000.60,0000.15,0000.07,0000.07,0000.45,0000.19,17.4,23.9,,00.0,0670.6,30.9
2021-10-09T10:21:00Z,00000200,01000000,0001.61,0000.27,0000.29,0000.09,0000.30,-000.12,0000.20,0000.06,0000.34,17.5,23.9,,00.0,0670.6,31.0
2021-10-09T10:22:00Z,00000200,01000000,0000.86,0000.52,0000.31,-000.19,0000.18,0000.09,-000.03,0000.00,0000.12,17.6,23.9,,00.0,0670.6,31.0
2021-10-09T10:23:00Z,00000200,01000000,0001.08,0001.10,0000.45,0000.70,0000.08,0000.32,-000.01,0000.13,0000.31,17.6,24.0,,00.0,0670.6,31.0
2021-10-09T10:24:00Z,00000200,01000000,0001.57,0000.50,0000.42,0000.14,0000.10,0000.27,0000.33,0000.14,0000.21,17.7,24.0,,00.0,0670.6,31.0
2021-10-09T10:25:00Z,00000200,01000000,0001.53,0000.72,0000.55,0000.66,0000.25,0000.23,0000.37,0000.24,-000.33,17.7,24.1,,00.0,0670.6,31.0
2021-10-09T10:26:00Z,00000200,01000000,0001.14,0000.56,0000.60,0000.08,0000.33,0000.32,0000.09,-000.12,0000.18,17.8,24.1,,00.0,0670.6,31.0
2021-10-09T10:27:00Z,00000200,01000000,0000.50,0000.93,0000.26,-000.49,0000.11,-000.12,-000.04,0000.02,-000.44,17.7,24.1,,00.0,0670.6,31.0
2021-10-09T10:28:00Z,00000200,01000000,0000.78,0000.45,0000.36,0000.29,0000.30,0000.08,0000.26,0000.35,0000.49,17.6,24.0,,00.0,0670.6,30.9
2021-10-09T10:29:00Z,00000200,01000000,0000.97,0000.54,0000.30,0000.35,0000.30,0000.03,0000.20,0000.13,0000.33,17.6,24.0,,00.0,0670.6,31.0
2021-10-09T10:30:00Z,00000200,01000000,0000.89,0000.61,0000.47,0000.09,0000.14,0000.28,0000.16,0000.60,0000.32,17.6,24.0,,00.0,0670.6,31.0
2021-10-09T10:31:00Z,00000200,01000000,0000.68,0000.67,0000.60,0000.51,0000.12,0000.57,0000.55,-000.04,0000.12,17.6,24.0,,00.0,0670.6,31.0
2021-10-09T10:32:00Z,00000200,01000000,0000.53,0000.84,0000.25,0000.42,0000.11,-000.14,0000.13,0000.35,0000.11,17.7,24.1,,00.0,0670.6,31.0
2021-10-09T10:33:00Z,00000200,01000000,0000.96,0000.75,0000.46,-000.15,0000.09,-000.10,0000.47,0000.46,0000.42,17.7,24.1,,00.0,0670.6,31.0
2021-10-09T10:34:00Z,00000200,01000000,0001.16,0000.57,0000.19,0000.17,0000.20,0000.05,0000.23,0000.42,0000.21,17.8,24.1,,00.0,0670.6,31.0
2021-10-09T10:35:00Z,00000200,01000000,0001.07,0000.51,0000.45,0000.01,-000.10,0000.09,0000.12,0000.11,-000.01,17.9,24.2,,00.0,0670.6,31.0
2021-10-09T10:36:00Z,00000200,01000000,0001.25,0000.61,0000.55,0000.50,0000.04,-000.01,0000.45,0000.19,0000.07,17.9,24.2,,00.0,0670.6,31.0
2021-10-09T10:37:00Z,00000200,01000000,0001.20,0000.50,0000.33,0000.05,0000.21,0000.11,0000.41,0000.43,0000.43,17.9,24.2,,00.0,0670.6,31.0
2021-10-09T10:38:00Z,00000200,01000000,0000.93,0000.57,0000.10,-000.16,0000.45,0000.11,-000.23,-000.20,-000.30,17.9,24.2,,00.0,0670.6,31.0
2021-10-09T10:39:00Z,00000200,01000000,0000.41,0000.49,0000.50,0000.36,0000.09,0000.25,0000.16,-000.12,0000.05,17.9,24.2,,00.0,0670.6,31.0
2021-10-09T10:40:00Z,00000200,01000000,0001.47,0000.77,0000.52,0000.37,0000.08,0000.32,0000.09,-000.34,-000.08,17.8,24.2,,00.0,0670.6,30.9
2021-10-09T10:41:00Z,00000200,01000000,0000.63,0000.44,0000.19,0000.13,0000.12,0000.25,0000.21,0000.63,0000.02,17.7,24.1,,00.0,0670.6,30.9
2021-10-09T10:42:00Z,00000200,01000000,0001.58,0000.17,0000.73,0000.45,0000.25,0000.15,-000.14,0000.07,0000.36,17.6,24.1,,00.0,0670.6,30.9
2021-10-09T10:43:00Z,00000200,01000000,0000.30,0000.84,0000.36,-000.19,-000.26,-000.29,0000.44,0000.09,0000.06,17.6,24.0,,00.0,0670.6,30.9
2021-10-09T10:44:00Z,00000200,01000000,0000.91,0000.79,0000.53,0000.04,0000.15,0000.25,0000.40,0000.64,0000.61,17.6,24.0,,00.0,0670.6,30.9
2021-10-09T10:45:00Z,00000200,01000000,-000.18,0000.86,0000.06,0000.47,-000.31,0000.30,0000.26,0000.23,0000.12,17.5,24.0,,00.0,0670.6,30.9
2021-10-09T10:46:00Z,00000200,01000000,0001.25,0000.27,0000.66,-000.22,-000.04,-000.11,0000.21,-000.04,0000.11,17.6,24.0,,00.0,0670.6,30.9
2021-10-09T10:47:00Z,00000200,01000000,0001.07,0000.59,0000.35,-000.00,0000.38,0000.12,-000.03,0000.36,0000.29,17.7,24.1,,00.0,0670.6,31.0
2021-10-09T10:48:00Z,00000200,01000000,0000.99,0000.73,0000.56,0000.15,0000.17,0000.03,0000.83,0000.32,0000.01,17.8,24.1,,00.0,0670.6,31.0
2021-10-09T10:49:00Z,00000200,01000000,0000.65,0000.31,0000.40,0000.50,0000.03,0000.02,-000.20,0000.16,0000.05,17.8,24.1,,00.0,0670.6,31.0
2021-10-09T10:50:00Z,00000200,01000000,0000.83,0000.49,0000.32,-000.19,0000.22,0000.38,0000.10,0000.52,-000.04,17.9,24.2,,00.0,0670.6,31.0
2021-10-09T10:51:00Z,00000200,01000000,0000.74,0000.62,0000.40,0000.19,0000.16,0000.08,-000.28,-000.56,0000.06,17.8,24.2,,00.0,0670.6,31.0
2021-10-09T10:52:00Z,00000200,01000000,0001.16,0000.96,0000.53,-000.07,0000.18,0000.24,-000.18,-000.41,-000.30,17.8,24.1,,00.0,0670.6,30.9
2021-10-09T10:53:00Z,00000200,01000000,0000.23,0000.45,0000.36,0000.25,0000.23,0000.18,0000.25,0000.37,0000.24,17.7,24.1,,00.0,0670.6,30.9
2021-10-09T10:54:00Z,00000200,01000000,0000.97,0000.96,0000.27,0000.03,0000.23,0000.33,0000.51,-000.02,-000.02,17.6,24.1,,00.0,0670.6,30.9
2021-10-09T10:55:00Z,00000200,01000000,0001.48,0000.64,0000.74,0000.27,0000.46,0000.32,-000.18,-000.09,-000.22,17.6,24.0,,00.0,0670.6,30.9
2021-10-09T10:56:00Z,00000200,01000000,0001.45,0000.69,0000.54,-000.25,0000.12,0000.25,0000.22,0000.24,0000.17,17.5,24.0,,00.0,0670.6,30.9
2021-10-09T10:57:00Z,00000200,41000000,,,,,,,0000.52,-000.17,0000.33,17.5,24.0,,00.0,0670.6,30.9
2021-10-09T10:58:00Z,00000200,61000000,,,,,,,-000.33,0000.55,0000.03,17.1,24.1,,00.0,0669.6,30.9
2021-10-09T10:59:00Z,00000200,21000000,,,,,,,0000.40,0000.31,0000.35,17.1,24.2,,00.0,0669.5,30.9
